User: anonymous
Location: Caltech
(34.1382°N, 118.1253°W)
Time: 06:09:14
(UTC-07:00)
Language:

Cosmos 1758 Rocket - Orbit

View from above orbital plane
View from above orbital plane
View from above satellite
View from above satellite

Ground track
Ground track

The orbit data is extracted from the following two-line orbital elements,

1 16792U 86046B   14210.32421743  .00000249  00000-0  27764-4 0  5264
2 16792 082.4838 113.7569 0025396 159.1447 340.4760 14.82588005518692
Epoch (UTC): 29 July 2014 07:46:52
Eccentricity: 0.0025396
inclination: 82.4838°
perigee height: 603 km
apogee height: 639 km
right ascension of ascending node: 113.7569°
argument of perigee: 159.1447°
revolutions per day: 14.82588005
mean anomaly at epoch: 340.4760°
orbit number at epoch: 51869

The dashed part of the orbit path shows where the satellite is in the earth's shadow,  

DLR